www.pogodaiklimat.ru
ПОГОДА в Ыгдыре

Архив погоды в Ыгдыре (Турция)

Время
(UTC), дата
16 11.07
17 11.07
18 11.07
21 11.07
00 12.07
03 12.07
06 12.07
07 12.07
08 12.07
09 12.07
10 12.07
11 12.07
12 12.07
13 12.07
14 12.07
15 12.07
16 12.07
17 12.07
18 12.07
21 12.07
00 13.07
03 13.07
06 13.07
07 13.07
08 13.07
09 13.07
10 13.07
11 13.07
12 13.07
13 13.07
14 13.07
15 13.07
16 13.07
17 13.07
18 13.07
21 13.07
00 14.07
03 14.07
06 14.07
07 14.07
08 14.07
09 14.07
10 14.07
11 14.07
12 14.07
13 14.07
14 14.07
15 14.07
16 14.07
17 14.07
18 14.07
21 14.07
00 15.07
03 15.07
06 15.07
07 15.07
08 15.07
09 15.07
10 15.07
11 15.07
12 15.07
13 15.07
14 15.07
15 15.07
16 15.07
17 15.07
18 15.07
21 15.07
00 16.07
03 16.07
06 16.07
07 16.07
08 16.07
09 16.07
10 16.07
11 16.07
12 16.07
13 16.07
14 16.07
15 16.07
16 16.07
17 16.07
18 16.07
21 16.07
00 17.07
03 17.07
06 17.07
07 17.07
08 17.07
09 17.07
10 17.07
11 17.07
12 17.07
13 17.07
14 17.07
15 17.07
16 17.07
17 17.07
18 17.07
21 17.07
00 18.07
03 18.07
06 18.07
07 18.07
08 18.07
09 18.07
10 18.07
11 18.07
12 18.07
13 18.07
14 18.07
15 18.07
Ветер
(напр.,м/с)
Видим. Явления Облачность Т
(С)
Тd
(С)
f
(%)
Тe
(С)
Тes
(С)
Комфортность P
(гПа)
Po
(гПа)
Тmin
(С)
Tmax
(С)
R
(мм)
R24
(мм)
S
(см)
штиль 0 20 км 6/4 1000 м
[Cu hum Ac trans]
+29.5 +15.4 42 +32 +32 душно 1005.5 913.2
штиль 0 20 км 6/4 1000 м
[Cu hum Ac trans]
+29.5 +15.4 42 +32 +32 душно 1005.5 913.2
С 2 {5} 20 км {гроза} 6/4 1200 м
[Cu hum Ac trans]
+28.4 +10.2 32 +29 +29 жарко 1006.6 914.6 +36.5 0.2
штиль 0 {4} 20 км 4/3 1200 м
[Cu hum Ac trans]
+24.4 +11.4 44 +26 +26 жарко 1005.6 913.9
штиль 0 {7} 20 км 4/1 1200 м
[Cu hum Ac trans]
+25.1 +11.7 43 +27 +27 жарко 1004.7 913.5
штиль 0 {2} 20 км 4/1 1200 м
[Cu hum Ac trans]
+21.9 +14.0 61 +25 +26 комфорт 1006.2 914.1
СЗ 1 {3} 20 км 4/1 1200 м
[Cu hum Ac trans]
+28.7 +14.6 42 +31 +42 жарко 1005.1 913.5 +21.5 0.2 0.4
СЗ 1 20 км 4/1 1000 м
[Cu hum Ac trans]
+30.2 +12.9 35 +31 +46 жарко 1004.8 913.3
штиль 0 20 км 4/1 1000 м
[Cu hum Ac trans]
+32.8 +13.7 31 +34 +52 опасность солнечного удара 1004.1 912.8
Ю 1 {3} 20 км 4/1 1200 м
[Cu hum Ac trans]
+32.3 +13.5 32 +33 +51 опасность солнечного удара 1003.7 912.2
В 1 20 км 4/4 1000 м
[Cu hum]
+35.0 +15.5 31 +37 +51 опасность солнечного удара 1002.5 911.5
В 1 20 км 4/4 1000 м
[Cu hum]
+35.0 +15.5 31 +37 +49 очень душно 1002.5 911.5
СЗ 1 {4} 20 км 4/4 1200 м
[Cu hum]
+34.2 +14.0 30 +35 +45 очень жарко 1000.9 910.0
С 1 20 км 4/4 1000 м
[Cu hum]
+35.9 +14.7 28 +37 +43 душно 1000.1 909.4
С 1 20 км 4/4 1000 м
[Cu med, cong]
+35.6 +13.6 27 +36 +39 очень жарко 1000.0 909.0
В 2 {4} 20 км 6/4 1080 м
[Cu med, cong Ac trans]
+32.6 +12.2 29 +33 +34 жарко 1000.5 909.0
В 1 20 км 6/4 1000 м
[Cu med, cong Ac trans]
+30.4 +13.6 36 +32 +32 жарко 1000.5 909.1
штиль 0 20 км 6/4 1000 м
[Cu med, cong Ac trans]
+29.4 +13.5 38 +31 +31 жарко 1000.9 909.5
штиль 0 {5} 20 км 6/4 1200 м
[Cu med, cong Ac trans]
+28.8 +14.8 42 +31 +31 жарко 1001.4 910.2 +36.3
З 1 {5} 20 км 4/1 1200 м
[Cu med, cong Ac trans]
+26.9 +14.1 45 +29 +29 жарко 1001.8 910.8
СЗ 1 {5} 20 км ясно +25.3 +13.7 49 +28 +28 жарко 1001.6 910.7
штиль 0 {4} 20 км ясно +24.4 +13.2 50 +27 +28 жарко 1002.0 910.7
С 1 {4} 20 км ясно +28.9 +15.0 43 +31 +46 жарко 1001.7 910.5 +22.8
штиль 0 20 км ясно +30.5 +15.3 40 +33 +55 опасность солнечного удара 1001.3 910.3
В 1 20 км 1/1 1000 м
[Cu med, cong]
+31.6 +15.1 37 +34 +55 опасность солнечного удара 1001.1 910.0
штиль 0 {4} 20 км 1/1 1110 м
[Cu med, cong]
+32.8 +15.9 36 +35 +60 опасность солнечного удара 1000.1 909.4
СВ 1 20 км 1/1 1000 м
[Cu med, cong]
+33.6 +15.8 34 +36 +57 опасность солнечного удара 999.2 908.7
В 2 20 км 1/1 1000 м
[Cu med, cong]
+33.9 +15.8 34 +36 +52 опасность солнечного удара 998.7 908.1
В 1 {4} 20 км 3/3 1110 м
[Cu med, cong]
+35.0 +14.3 29 +36 +47 очень жарко 998.1 907.6
В 1 20 км 3/3 1000 м
[Cu med, cong]
+35.8 +13.4 26 +36 +43 очень жарко 997.5 907.2
В 1 20 км 5/3 1000 м
[Cu med, cong Ac trans]
+35.6 +14.8 29 +37 +40 душно 997.5 906.9
В 2 {5} 20 км 5/3 1050 м
[Cu med, cong Ac trans]
+33.1 +15.2 34 +35 +36 душно 997.8 907.0
В 2 20 км 5/3 1000 м
[Cu med, cong Ac trans]
+30.4 +14.6 38 +32 +32 жарко 999.0 907.7
В 2 20 км 3/0
[Ac trans]
+29.0 +14.3 41 +31 +31 жарко 999.3 908.1
ЮВ 1 {7} 20 км 1/0 2000 м
[Ac trans]
+28.5 +14.4 42 +31 +31 душно 1000.1 909.0 +36.1
штиль 0 {4} 20 км 1/0 2000 м
[Ac trans]
+26.8 +13.9 45 +29 +29 жарко 999.7 909.0
штиль 0 {4} 20 км ясно +22.6 +15.0 62 +26 +26 жарко 1000.6 909.5
штиль 0 {2} 20 км ясно +22.3 +15.7 66 +26 +28 жарко 1001.8 910.3
штиль 0 {2} 20 км 5/0
[Ci fib]
+29.1 +15.0 42 +32 +46 душно 1001.5 910.3 +21.1
С 1 20 км 5/0
[Ci fib]
+29.9 +15.5 42 +33 +51 опасность солнечного удара 1001.2 910.1
штиль 0 20 км 5/0
[Ci fib]
+30.7 +15.0 39 +33 +56 опасность солнечного удара 1000.6 909.6
штиль 0 {3} 20 км 4/1 1200 м
[Cu hum Ac trans]
+31.9 +14.2 34 +33 +53 опасность солнечного удара 999.9 909.0
штиль 0 20 км 4/1 1000 м
[Cu hum Ac trans]
+33.5 +15.8 35 +36 +54 опасность солнечного удара 999.3 908.3
СВ 1 20 км 4/1 1000 м
[Cu hum Ac trans]
+33.5 +15.4 34 +36 +50 очень душно 998.8 907.7
СВ 1 {4} 20 км 4/1 1200 м
[Cu hum Ac trans]
+34.2 +15.8 33 +36 +47 душно 998.0 907.0
В 2 20 км 6/3 1000 м
[Cu hum Ac trans]
+34.6 +14.7 30 +36 +40 душно 997.6 906.6
В 1 20 км 6/3 1000 м
[Cu hum Ac trans]
+35.0 +14.3 29 +36 +39 очень жарко 997.0 906.0
В 3-8 {8} 20 км 6/3 1110 м
[Cu med, cong Ac trans]
+31.4 +15.4 38 +34 +34 душно 998.3 906.8
В 2 20 км 6/3 1000 м
[Cu med, cong Ac trans]
+29.6 +14.8 41 +32 +32 душно 998.9 907.5
Ю 1 20 км 6/3 1000 м
[Cu med, cong Ac trans]
+28.2 +14.2 42 +30 +30 жарко 999.9 908.6
СВ 1 {9} 20 км 6/3 1110 м
[Cu med, cong Ac trans]
+27.9 +14.2 43 +30 +30 жарко 1000.7 909.5 +35.4
штиль 0 {4} 20 км 6/3 1110 м
[Cu med, cong Ac trans]
+25.1 +15.1 54 +28 +28 жарко 1001.5 910.2
С 1 {4} 20 км 6/3 1110 м
[Cu med, cong Ac trans]
+23.7 +16.2 63 +27 +27 жарко 1002.2 911.0
СЗ 2 {5} 20 км 6/3 1110 м
[Cu med, cong Ac trans]
+23.8 +14.8 57 +27 +27 жарко 1003.4 911.7
штиль 0 {5} 20 км 3/3 1110 м
[Cu med, cong]
+28.6 +15.0 44 +31 +42 жарко 1003.1 911.6 +23.4
СВ 1 20 км 3/3 1000 м
[Cu med, cong]
+29.0 +15.9 45 +32 +46 душно 1002.9 911.5
СВ 2 20 км 4/1 1000 м
[Cu med, cong Ac trans]
+30.1 +16.1 43 +33 +48 душно 1002.6 911.2
В 1 {4} 20 км 4/1 1080 м
[Cu med, cong Ac trans]
+32.1 +16.1 38 +35 +52 опасность солнечного удара 1002.0 910.7
В 1 20 км 4/1 1000 м
[Cu med, cong Ac trans]
+32.0 +14.8 35 +34 +51 опасность солнечного удара 1001.4 910.1
СВ 1 20 км 6/4 1000 м
[Cu med, cong Ac trans]
+32.6 +13.5 31 +34 +43 очень жарко 1000.9 909.8
СВ 1 {4} 20 км 6/4 1080 м
[Cu med, cong Ac trans]
+33.6 +14.2 31 +35 +42 душно 1000.5 909.4
СЗ 1 20 км 6/4 1000 м
[Cu med, cong Ac trans]
+32.4 +14.0 33 +34 +38 очень жарко 1000.4 909.1
С 1 20 км 6/4 1000 м
[Cu med, cong Ac trans]
+31.8 +14.1 34 +33 +36 жарко 1000.6 909.3
С 1 {4} 20 км 8/3 1050 м
[Cu med, cong Ac trans]
+31.0 +15.4 39 +33 +34 душно 1001.3 909.7
Ю 1 20 км 8/4 1000 м
[Cb cap Ac trans]
+29.0 +15.0 43 +32 +32 душно 1002.5 910.7
штиль 0 20 км 8/4 1000 м
[Cu hum Ac trans]
+27.0 +15.6 50 +30 +30 душно 1002.4 910.6
штиль 0 {6} 20 км 8/4 1080 м
[Cu hum Ac trans]
+27.4 +15.9 49 +30 +30 жарко 1003.0 911.5 +34.0
штиль 0 {2} 20 км 8/0
[Ac trans Cs]
+25.6 +15.1 52 +28 +28 жарко 1003.6 912.3
штиль 0 {2} 20 км 8/0
[Ac trans Cs]
+25.6 +15.1 52 +28 +28 жарко 1003.6 912.3
штиль 0 {2} 20 км 6/0
[Ac trans Cs]
+23.2 +13.7 55 +27 +28 душно 1005.1 913.1
штиль 0 {3} 20 км 6/0
[Ac trans Cs]
+25.0 +15.6 56 +28 +36 жарко 1006.0 913.6 +22.5
штиль 0 20 км 6/4 600 м
[Cu med, cong Ac trans]
+26.2 +14.6 49 +29 +39 жарко 1006.0 913.8
З 1 20 км 6/4 1000 м
[Cu med, cong Ac trans]
+25.7 +15.0 52 +29 +40 душно 1006.3 913.8
З 1 {3} 20 км 8/5 750 м
[Cb cap Ac trans]
+25.6 +16.2 56 +29 +37 душно 1006.2 913.6
штиль 0 20 км в посл. час ливневой дождь 8/5 600 м
[Cb cap Ac trans]
+26.1 +16.7 56 +30 +38 душно 1005.7 913.2
штиль 0 20 км 8/5 600 м
[Cb cap Ac trans]
+28.2 +15.7 47 +31 +38 душно 1005.0 912.7
штиль 0 {3} 20 км {ливн. дождь} 8/5 600 м
[Cb cap Ac trans]
+30.5 +15.1 39 +33 +38 душно 1004.1 912.2 0.4
штиль 0 20 км 8/5 600 м
[Cu hum Ac trans]
+31.2 +14.6 37 +33 +37 жарко 1003.6 911.7
штиль 0 20 км 6/4 600 м
[Cu hum Ac trans]
+31.5 +14.8 36 +33 +36 жарко 1003.4 911.5
штиль 0 {2} 20 км 3/0 2000 м
[Ac trans]
+32.4 +15.8 37 +35 +36 душно 1003.1 911.5
штиль 0 20 км ясно +29.6 +15.3 42 +32 +32 душно 1003.7 911.6
штиль 0 20 км ясно +26.6 +17.5 57 +31 +31 душно 1004.4 912.0
В 1 {4} 20 км ясно +27.4 +13.9 43 +29 +29 жарко 1004.9 912.6 +32.7 0.4
штиль 0 {2} 20 км ясно +24.5 +14.0 52 +27 +27 жарко 1005.8 913.1
штиль 0 {2} 20 км 3/0 2000 м
[Ac trans]
+21.9 +14.8 64 +25 +25 комфорт 1005.7 913.4
штиль 0 {1} 20 км 3/0 2000 м
[Ac trans]
+21.5 +15.4 68 +25 +26 комфорт 1006.5 914.3
штиль 0 {3} 20 км ясно +28.6 +13.1 38 +30 +46 жарко 1006.7 914.8 +20.8 0.4
СВ 1 20 км 1/0
[Ac trans]
+29.8 +14.4 39 +32 +50 душно 1006.5 914.5
штиль 0 20 км ясно +31.7 +15.5 38 +34 +59 опасность солнечного удара 1005.7 913.9
С 1 {3} 20 км 4/0
[Cs]
+33.1 +15.5 35 +35 +58 опасность солнечного удара 1004.9 913.4
СВ 1 20 км 4/0
[Cs]
+33.3 +15.2 34 +35 +57 опасность солнечного удара 1004.3 912.7
С 1 20 км 4/0
[Ac lent Cs]
+33.9 +16.2 35 +37 +53 опасность солнечного удара 1003.4 912.0
СВ 1 {4} 20 км 5/1 500 м
[Cb cap Ac trans]
+33.6 +15.6 34 +36 +46 очень душно 1003.0 911.4
С 1 20 км 5/1 1000 м
[Cb cap Ac trans]
+33.8 +16.1 35 +36 +42 очень душно 1002.5 910.9
штиль 0 20 км 5/1 1000 м
[Cb cap Ac trans]
+35.0 +16.1 32 +37 +41 очень душно 1001.3 910.0
штиль 0 {3} 20 км 5/3 900 м
[Cu med, cong Ac trans]
+32.8 +16.1 37 +36 +37 очень душно 1001.6 909.9
штиль 0 20 км 4/1 600 м
[Cu med, cong Ac trans]
+32.0 +17.1 41 +36 +36 очень душно 1001.6 910.2
штиль 0 20 км 8/4 1000 м
[Cu hum Ac trans]
+30.3 +15.5 41 +33 +33 душно 1003.1 911.6
З 2 {8} 20 км 8/5 750 м
[Cb cap Ac trans]
+27.9 +14.1 43 +30 +30 жарко 1004.7 913.1 +35.8
СВ 1 {6} 20 км 8/5 750 м
[Cb cap Ac trans]
+27.3 +14.0 44 +29 +29 жарко 1005.1 914.0
штиль 0 {10} 20 км в посл. час ливневой дождь 8/5 600 м
[Cb cap Ac trans]
+23.5 +15.8 62 +27 +27 душно 1006.1 914.4 0.1
штиль 0 {2} 20 км 5/3 900 м
[Cu hum Ac trans]
+22.4 +15.6 65 +26 +27 жарко 1006.1 914.2
штиль 0 {4} 20 км 4/1 1200 м
[Cu hum Ac trans]
+25.9 +17.0 58 +30 +41 душно 1006.5 914.3 +20.4 0.8 0.8
штиль 0 20 км 4/1 1000 м
[Cu hum Ac trans]
+28.9 +15.5 44 +32 +47 душно 1005.6 914.0
В 1 20 км 5/4 1000 м
[Cu hum Ac trans Cs]
+29.8 +15.6 42 +33 +45 душно 1004.8 913.4
Ю 1 {3} 20 км 6/1 1170 м
[Cu hum Ac trans Cs]
+29.1 +14.5 41 +31 +47 жарко 1004.4 912.8
В 1 20 км 6/1 1000 м
[Cu hum Ac trans Cs]
+31.4 +16.0 40 +34 +50 душно 1003.8 912.1
СВ 1 20 км 5/1 1000 м
[Cu hum Ac trans Cs]
+32.0 +15.8 38 +35 +49 очень душно 1003.1 911.5
В 2 {4} 20 км 4/1 1200 м
[Cu hum Ac trans]
+32.8 +15.2 35 +35 +44 душно 1002.2 910.8
В 1 20 км 6/4 600 м
[Cb cap Ac trans]
+31.9 +15.7 38 +35 +39 очень душно 1002.3 910.3
штиль 0 20 км 6/4 1000 м
[Cb cap Ac trans]
+31.4 +15.8 39 +34 +37 душно 1001.7 909.7
ЮВ 2 {5} 20 км 6/1 750 м
[Cb cap Ac trans]
+30.2 +15.2 40 +33 +33 душно 1001.7 909.8
Местоположение метеостанции Ыгдыр (Турция): широта 39.93 долгота 44.03 высота над уровнем моря 858 м.
В архиве по умолчанию представлена погода в Ыгдыре за последнюю неделю. Архивные данные за месяц целиком и за предыдущие месяцы, начиная с января 2011 года, Вы можете получить, выбрав интересующий диапазон дат из раскрывающегося списка и нажав кнопку "Найти!".
*Определитесь, кто Вы:
Внимание! Время в таблицах - всемирное. Для получения местного времени необходимо прибавить поправку, которая равна 3 ч.
Некоторые строки с данными для отдельных станций могут быть выделены курсивом. Это означает, что фактические данные отсутствуют по различным причинам, а приведенные значения являются расчетными модельными данными для данного пункта наблюдений.
Смотрите также архив погоды в соседних городах и на ближайших метеорологических станциях:
Партнеры нашего сайта:      
Пояснения к столбцам:
  • Ветер - указаны скорость ветра в м/с - средняя за 10 мин, порывы в срок и между сроками (в фигурных скобках) и направление, откуда дует ветер: С - северный,
  • СВ - северо-восточный, В - восточный, ЮВ - юго-восточный, Ю - южный, ЮЗ - юго-западный, З - западный, СЗ - северо-западный.
  • Видимость - горизонтальная дальность видимости в метрах или километрах. При видимости от 1 до 10 км при отсутствии осадков обычно наблюдается дымка, при ухудшении видимости до 1 км и менее - туман. В сухую погоду видимость может ухудшаться дымом, пылью или мглою.
  • Явления - указаны атмосферные явления, наблюдавшиеся в срок или в последний час перед сроком; фигурными скобками обозначены явления, наблюдавшиеся между сроками (за 1-3 часа до срока); квадратными скобками обозначены град или гололедные отложения с указанием их диаметра в мм.
  • Облачность - указаны через наклонную черту общая и нижняя облачность в баллах и высота нижней границы облаков в метрах; квадратными скобками обозначены формы облаков: Ci - перистые, Cs - перисто-слоистые, Cc - перисто-кучевые, Ac - высококучевые, As - высокослоистые, Sc - слоисто-кучевые, Ns - слоисто-дождевые, Cu - кучевые, Cb - кучево-дождевые. Подробнее классификацию облаков см. в Атласе облаков (PDF).
  • T - Температура воздуха - температура, измеренная на высоте 2 м над землей.
  • Td - Температура точки росы - температура, при понижении до которой содержащийся в воздухе водяной пар достигнет насыщения.
  • f - Относительная влажность воздуха - влажноcть воздуха, измеренная на высоте 2 м над землей.
  • Te - Эффективная температура - температура, которую ощущает одетый по сезону человек в тени. Характеристика душности погоды. При расчете учитывается влияние влажности воздуха и скорости ветра на теплоощущения человека.
  • Tes - Эффективная температура на солнце - температура, которую ощущает человек, с поправкой на солнечный нагрев. Характеристика знойности погоды. Зависит от высоты солнца над горизонтом, облачности и скорости ветра. Ночью, в пасмурную погоду, а также при ветре 12 м/с и более поправка равна нулю.
  • P - Атмосферное давление - приведенное к уровню моря атмосферное давление.
  • Po - Атмосферное давление - измеренное на уровне метеостанции атмосферное давление.
  • Tmin - Минимальная температура - минимум температуры воздуха на высоте 2 м над землей.
  • Tmax - Максимальная температура - максимум температуры воздуха на высоте 2 м над землей.
  • R - Количество осадков - Количество выпавших осадков за период времени, мм. При наведении курсора мыши на число - период времени, за который выпало указанное количество осадков.
  • R24 - Количество осадков - Количество выпавших осадков за 24 часа, мм.
  • S - Снежный покров - Высота снежного покрова, см. При наведении курсора мыши на число - состояние снежного покрова и степень покрытия местности в баллах.